GFSFLT2_700_temp_120.txt.gz
Temp
1 1 1 2 1 2 1 1 0 1 0 0 -0 -0 -0 -0 -0 1 1 1 1 1 1 1 1 1 1
1 1 1 1 1 1 1 1 0 1 -0 -0 -0 -0 -0 -1 -1 -0 0 0 0 0 0 1 1 1 1
2 1 1 1 1 -0 -0 -1 -0 -0 -0 -0 -0 -1 -1 -1 -2 -1 -1 -0 1 1 0 0 1 1 0
1 1 1 1 -0 -1 -2 -2 -1 -1 -1 -1 -1 -1 -2 -2 -2 -1 -1 -0 0 -0 -0 -0 -0 0 -0
0 -0 -0 -1 -1 -2 -2 -3 -2 -2 -1 -2 -2 -2 -2 -2 -2 -2 -2 -1 -1 -1 -1 -1 -1 -1 -1
-1 -2 -2 -2 -3 -4 -4 -4 -4 -2 -2 -3 -2 -2 -3 -3 -2 -2 -2 -2 -1 -1 -1 -1 -1 -1 -1
-3 -4 -4 -5 -5 -4 -5 -5 -5 -4 -4 -3 -4 -3 -3 -3 -3 -3 -3 -3 -2 -2 -2 -2 -2 -2 -2
-4 -5 -6 -6 -6 -6 -6 -6 -6 -6 -5 -4 -4 -4 -3 -3 -3 -3 -3 -2 -2 -2 -2 -3 -2 -2 -2
-5 -6 -6 -7 -8 -8 -7 -7 -7 -6 -6 -5 -5 -4 -4 -4 -4 -4 -3 -3 -2 -3 -3 -3 -3 -3 -3
-7 -8 -8 -7 -7 -9 -8 -8 -7 -7 -6 -6 -5 -5 -5 -4 -4 -4 -4 -3 -3 -3 -4 -3 -3 -3 -3
-8 -8 -8 -8 -9 -9 -8 -8 -8 -8 -7 -7 -6 -6 -6 -5 -5 -4 -4 -4 -4 -4 -4 -4 -4 -4 -4
-9 -9 -9 -9 -9 -9 -9 -8 -8 -8 -8 -7 -7 -6 -6 -6 -6 -5 -5 -4 -4 -4 -4 -4 -4 -4 -4
-9 -9 -10 -10 -9 -9 -9 -9 -8 -8 -7 -7 -7 -7 -7 -7 -6 -6 -5 -4 -5 -5 -5 -5 -5 -5 -5
-10 -10 -10 -10 -10 -9 -9 -8 -8 -8 -8 -8 -8 -8 -8 -7 -7 -8 -6 -5 -5 -5 -5 -5 -5 -5 -5
-10 -10 -10 -10 -10 -9 -9 -8 -8 -8 -8 -8 -8 -8 -8 -8 -7 -8 -6 -6 -6 -6 -6 -6 -6 -6 -6
-11 -11 -10 -10 -10 -9 -9 -9 -9 -9 -8 -9 -9 -10 -9 -9 -8 -8 -7 -7 -7 -7 -7 -6 -6 -6 -6
-11 -11 -10 -10 -10 -9 -10 -9 -9 -9 -9 -9 -9 -10 -10 -10 -9 -10 -8 -8 -8 -8 -9 -8 -7 -6 -6

GFSFLT2_700_temp_123.txt.gz
Temp
1 1 1 1 1 1 1 1 1 1 1 0 1 0 0 0 -0 -0 -0 -0 0 1 1 1 1 1 2
1 1 1 2 2 2 1 1 1 1 1 0 -0 -0 -0 0 0 -0 -1 -1 -0 -1 -0 0 0 0 1
2 2 2 1 1 1 1 1 0 -0 -1 -0 -1 -0 -0 -1 -1 -1 -1 -1 -1 -1 -1 -1 -0 0 0
1 1 1 1 1 0 0 -0 -0 -1 -1 -2 -2 -1 -1 -1 -2 -2 -1 -1 -2 -2 -1 -2 -1 -1 -0
1 1 0 0 -0 -1 -1 -1 -2 -2 -2 -3 -3 -4 -3 -3 -2 -2 -2 -2 -2 -2 -2 -3 -2 -1 -1
0 -0 -0 -1 -2 -2 -2 -3 -3 -3 -4 -3 -4 -5 -4 -3 -3 -3 -4 -3 -3 -3 -3 -3 -4 -2 -1
-1 -1 -2 -2 -3 -3 -4 -5 -5 -5 -6 -5 -5 -5 -5 -5 -4 -4 -3 -4 -4 -4 -3 -4 -4 -1 -1
-2 -3 -4 -4 -5 -6 -6 -7 -7 -7 -7 -7 -7 -6 -6 -5 -5 -5 -4 -4 -4 -4 -4 -4 -4 -2 -2
-4 -4 -5 -6 -7 -7 -7 -8 -8 -8 -8 -8 -8 -7 -6 -6 -6 -5 -5 -5 -5 -4 -4 -4 -3 -3 -3
-5 -6 -7 -8 -8 -8 -8 -9 -11 -8 -8 -9 -8 -8 -7 -7 -6 -6 -6 -5 -5 -5 -5 -5 -3 -3 -3
-7 -8 -8 -8 -8 -9 -9 -9 -9 -9 -9 -9 -8 -7 -7 -7 -6 -6 -7 -6 -5 -5 -5 -5 -4 -4 -3
-9 -9 -9 -9 -9 -9 -9 -10 -10 -9 -9 -9 -8 -8 -8 -8 -7 -7 -7 -7 -6 -5 -5 -5 -4 -4 -4
-9 -9 -9 -9 -9 -9 -9 -10 -9 -9 -8 -8 -8 -8 -9 -8 -7 -7 -7 -7 -7 -6 -7 -5 -5 -4 -4
-9 -9 -9 -9 -10 -10 -10 -9 -8 -9 -8 -8 -8 -8 -8 -8 -8 -8 -7 -7 -7 -8 -6 -6 -5 -5 -5
-10 -10 -10 -10 -10 -10 -10 -10 -9 -9 -9 -9 -9 -9 -9 -9 -9 -9 -8 -8 -7 -7 -7 -6 -6 -5 -6
-10 -10 -10 -10 -10 -10 -10 -10 -10 -10 -9 -9 -9 -9 -9 -9 -10 -10 -9 -9 -9 -8 -7 -7 -7 -6 -6
-11 -11 -11 -11 -11 -10 -10 -10 -10 -10 -9 -9 -10 -10 -10 -10 -10 -10 -10 -9 -9 -9 -8 -7 -8 -7 -7

GFSFLT2_700_temp_126.txt.gz
Temp
1 1 1 2 1 1 1 1 1 1 1 1 1 1 0 0 0 -0 0 -0 0 -1 -1 -1 -0 -0 -0
1 1 1 1 1 1 1 1 2 1 1 1 1 1 1 1 -0 -0 -0 -0 -0 -0 -1 -1 -1 -1 -1
1 1 1 1 2 2 2 2 2 1 1 1 0 0 0 -0 -0 -0 -1 -2 -1 -1 -1 -1 -2 -2 -1
1 1 1 1 1 1 2 2 2 1 1 0 -0 -1 -1 -1 -2 -2 -2 -2 -2 -2 -2 -2 -2 -2 -2
1 1 1 1 1 1 2 2 2 1 1 -0 -2 -2 -3 -3 -3 -3 -3 -3 -4 -3 -3 -3 -2 -2 -2
1 1 1 1 1 1 1 1 2 -0 -0 -1 -3 -3 -4 -4 -4 -5 -5 -5 -5 -4 -3 -3 -3 -4 -3
1 1 0 -0 0 0 0 -0 -1 -2 -3 -4 -4 -5 -5 -5 -6 -6 -7 -6 -5 -5 -5 -4 -4 -4 -4
-1 -1 -2 -2 -2 -2 -3 -3 -4 -4 -6 -6 -7 -7 -7 -8 -8 -7 -7 -7 -6 -6 -6 -5 -5 -5 -5
-2 -3 -4 -4 -5 -5 -6 -6 -6 -6 -7 -7 -7 -8 -7 -8 -7 -7 -7 -7 -7 -6 -6 -6 -6 -5 -5
-4 -5 -6 -6 -7 -7 -8 -8 -8 -7 -7 -8 -8 -8 -8 -7 -7 -7 -7 -6 -7 -7 -7 -6 -6 -5 -5
-5 -6 -7 -7 -8 -8 -8 -8 -8 -7 -8 -9 -9 -9 -9 -7 -7 -7 -7 -7 -7 -7 -7 -7 -6 -6 -5
-7 -7 -8 -8 -8 -8 -8 -9 -9 -9 -9 -9 -9 -8 -8 -7 -8 -7 -8 -7 -8 -8 -7 -7 -7 -6 -6
-8 -8 -8 -8 -9 -9 -9 -10 -10 -10 -9 -9 -9 -8 -8 -8 -8 -8 -8 -8 -8 -8 -8 -7 -7 -6 -6
-8 -9 -9 -9 -9 -10 -10 -10 -10 -10 -9 -9 -9 -8 -8 -8 -8 -8 -9 -9 -8 -9 -8 -8 -8 -7 -6
-9 -9 -10 -10 -10 -10 -10 -10 -10 -10 -10 -9 -9 -9 -9 -8 -8 -9 -9 -9 -9 -9 -9 -9 -9 -7 -6
-10 -10 -10 -10 -10 -10 -11 -11 -10 -10 -9 -9 -9 -9 -9 -8 -9 -9 -10 -10 -9 -9 -9 -8 -8 -7 -7
-10 -10 -10 -11 -11 -10 -11 -11 -10 -10 -10 -10 -9 -9 -9 -9 -9 -10 -10 -10 -10 -9 -10 -8 -9 -8 -7

GFSFLT2_700_temp_129.txt.gz
Temp
1 1 1 1 -0 0 1 1 2 2 2 2 2 2 2 2 2 2 1 1 1 1 1 0 1 1 0
1 1 1 0 -1 0 1 1 2 2 2 2 2 2 2 2 2 2 1 1 1 0 -1 -1 -1 -1 -2
1 -0 -0 0 1 2 2 2 2 2 2 2 2 2 2 2 1 1 1 0 -0 -1 -1 -2 -3 -1 -2
1 1 1 1 2 2 2 2 3 2 2 2 2 1 1 0 -0 -0 -0 -1 -1 -2 -2 -3 -3 -2 -3
1 1 1 1 2 2 2 2 3 2 3 2 2 1 0 -0 -1 -2 -2 -2 -2 -3 -3 -4 -3 -3 -3
1 1 1 1 2 2 2 2 3 2 2 2 1 -0 -2 -2 -3 -3 -3 -4 -4 -4 -5 -6 -5 -5 -4
1 1 1 1 1 1 1 1 2 1 1 1 -2 -3 -4 -4 -4 -4 -5 -5 -6 -7 -7 -7 -7 -5 -6
-0 -1 -0 -0 -0 0 0 0 -0 -1 -3 -2 -4 -5 -5 -6 -6 -6 -7 -7 -8 -8 -7 -7 -7 -7 -7
-2 -2 -2 -2 -2 -2 -2 -2 -2 -3 -5 -5 -6 -6 -7 -7 -7 -7 -7 -7 -7 -7 -7 -6 -7 -7 -6
-2 -2 -3 -3 -4 -4 -4 -5 -5 -5 -6 -6 -7 -7 -7 -7 -8 -8 -7 -7 -7 -7 -7 -6 -7 -7 -6
-3 -4 -4 -5 -5 -6 -7 -7 -8 -8 -8 -7 -7 -8 -8 -7 -7 -8 -7 -7 -7 -8 -7 -7 -7 -7 -7
-4 -5 -5 -6 -7 -8 -8 -9 -9 -9 -9 -9 -8 -8 -8 -8 -8 -8 -8 -8 -8 -8 -7 -7 -8 -7 -7
-5 -6 -7 -8 -9 -9 -9 -9 -9 -9 -10 -10 -9 -9 -9 -8 -8 -8 -8 -8 -8 -8 -7 -8 -7 -8 -7
-7 -8 -9 -9 -9 -9 -9 -10 -9 -10 -10 -10 -10 -9 -9 -9 -9 -9 -9 -9 -9 -9 -8 -8 -8 -8 -8
-9 -9 -10 -10 -10 -10 -10 -10 -10 -10 -11 -10 -10 -9 -9 -9 -9 -9 -9 -9 -9 -9 -8 -8 -8 -9 -9
-10 -10 -10 -10 -10 -11 -11 -11 -11 -11 -11 -10 -10 -10 -9 -10 -10 -10 -10 -10 -9 -10 -9 -9 -10 -9 -8
-11 -11 -11 -11 -11 -11 -11 -11 -11 -11 -11 -11 -10 -10 -10 -10 -10 -10 -10 -10 -10 -10 -10 -10 -11 -10 -9

GFSFLT2_700_temp_135.txt.gz
Temp
-0 0 0 -0 0 -0 -0 -0 0 -0 0 -0 -0 1 2 2 3 3 3 3 3 3 3 3 3 3 3
-1 0 -0 0 -0 -0 -0 -0 -1 1 1 1 1 2 2 2 3 3 3 3 3 3 3 3 3 3 3
-1 -1 -1 -0 -0 -1 -0 -0 1 1 1 1 1 2 2 2 2 2 3 3 3 3 3 3 3 3 3
-1 -1 -0 1 0 0 0 0 0 0 0 1 1 1 1 1 2 2 2 3 3 3 3 3 3 3 3
-0 0 0 0 0 0 1 1 0 0 1 -0 0 0 0 1 1 1 2 2 2 2 2 2 1 1 1
-0 -0 -0 -0 -0 -0 -0 0 0 -1 0 -0 0 -0 0 -0 0 1 1 1 1 0 -0 -1 -1 -2 -2
-1 -1 -1 -1 -1 -1 -1 -0 -1 -1 -0 1 -0 -0 -1 -1 -1 -1 -1 -1 -1 -2 -2 -3 -4 -4 -4
-2 -2 -2 -2 -2 -2 -1 -1 -1 -1 -1 0 -1 -1 -2 -3 -2 -2 -3 -3 -4 -4 -4 -4 -6 -6 -6
-3 -3 -3 -3 -3 -3 -2 -2 -2 -2 -3 -2 -2 -2 -3 -4 -4 -5 -5 -5 -6 -6 -6 -6 -6 -6 -7
-4 -4 -4 -4 -4 -4 -3 -3 -4 -3 -4 -3 -4 -4 -3 -5 -6 -6 -7 -7 -8 -7 -7 -6 -7 -7 -7
-5 -5 -5 -5 -5 -5 -5 -5 -5 -5 -6 -6 -5 -7 -7 -7 -8 -8 -8 -8 -8 -8 -7 -7 -7 -7 -7
-5 -5 -5 -6 -6 -6 -6 -6 -6 -6 -7 -8 -8 -9 -9 -8 -8 -9 -9 -8 -8 -7 -7 -7 -7 -7 -8
-6 -6 -6 -6 -7 -7 -7 -7 -7 -8 -9 -9 -9 -10 -10 -9 -9 -9 -9 -9 -8 -8 -8 -8 -7 -8 -8
-6 -7 -7 -8 -8 -8 -8 -8 -9 -10 -10 -10 -10 -10 -10 -11 -10 -10 -10 -9 -9 -9 -8 -8 -8 -8 -8
-8 -8 -9 -9 -9 -9 -9 -9 -10 -10 -10 -11 -11 -11 -11 -11 -11 -10 -10 -10 -9 -9 -9 -9 -9 -8 -8
-9 -9 -10 -10 -10 -10 -10 -11 -11 -11 -11 -11 -11 -11 -12 -12 -11 -11 -10 -10 -9 -10 -10 -9 -9 -9 -9
-10 -11 -11 -11 -10 -11 -12 -12 -12 -12 -12 -12 -12 -12 -11 -11 -11 -11 -10 -10 -10 -10 -10 -10 -11 -10 -10

GFSFLT2_700_temp_138.txt.gz
Temp
1 1 1 0 -0 1 0 -0 -1 -0 -0 -0 0 -0 -0 0 1 1 2 2 2 3 3 3 3 3 3
0 -0 -0 -1 -1 -1 -1 -0 -0 -1 -1 -1 -1 1 1 1 2 2 2 2 3 3 3 3 3 3 3
-1 -0 -1 -1 -2 -1 -1 -0 0 -0 0 0 1 1 2 2 2 2 2 2 2 3 3 3 3 3 3
-1 -1 -1 -1 -1 -0 -0 0 -0 0 0 0 0 0 0 1 1 1 1 2 2 2 2 3 3 3 3
-1 -1 -1 -1 -1 -0 -0 -0 -1 -1 -1 -1 -1 -1 -1 -0 0 1 1 1 1 2 2 2 2 2 2
-1 -1 -1 -1 -1 -1 -1 -1 -1 -1 -1 -1 -1 -1 -1 -1 -1 -0 -0 -0 0 0 1 1 1 1 1
-2 -2 -2 -2 -2 -2 -2 -2 -2 -2 -1 -1 -2 -2 -2 -2 -2 -1 -1 -1 -0 -0 -0 -1 -1 -1 -2
-2 -2 -2 -2 -2 -2 -2 -2 -2 -3 -2 -1 -2 -2 -2 -3 -3 -3 -3 -2 -2 -2 -2 -3 -3 -4 -4
-3 -3 -3 -3 -3 -3 -3 -3 -3 -4 -4 -3 -3 -3 -3 -4 -4 -4 -4 -4 -4 -4 -4 -4 -5 -5 -5
-4 -4 -4 -5 -5 -5 -5 -5 -5 -4 -5 -4 -4 -4 -3 -5 -6 -6 -6 -6 -6 -6 -6 -7 -7 -6 -7
-5 -6 -6 -6 -6 -6 -6 -6 -6 -6 -6 -6 -6 -6 -6 -5 -7 -8 -7 -7 -8 -8 -8 -8 -8 -7 -7
-6 -6 -6 -6 -6 -7 -7 -7 -7 -7 -8 -8 -7 -8 -8 -8 -8 -9 -9 -10 -9 -9 -9 -8 -8 -8 -7
-7 -7 -7 -7 -7 -7 -7 -8 -8 -9 -8 -8 -9 -9 -10 -10 -9 -10 -10 -10 -10 -10 -9 -9 -8 -8 -7
-8 -7 -8 -8 -8 -8 -8 -9 -9 -10 -10 -10 -11 -11 -11 -11 -11 -11 -11 -10 -10 -10 -9 -9 -9 -8 -8
-8 -8 -9 -9 -10 -10 -10 -10 -10 -10 -11 -12 -12 -11 -11 -12 -11 -12 -11 -11 -10 -10 -10 -10 -9 -9 -8
-9 -9 -10 -10 -10 -11 -11 -10 -10 -11 -12 -12 -12 -12 -12 -13 -12 -12 -12 -11 -10 -10 -10 -10 -9 -9 -9
-9 -10 -10 -11 -11 -11 -11 -11 -12 -12 -13 -12 -12 -12 -12 -12 -12 -12 -11 -11 -11 -10 -10 -10 -10 -10 -10

GFSFLT2_700_temp_144.txt.gz
Temp
-1 -0 -1 0 0 0 0 0 -0 -1 -1 -1 -1 -1 -0 -1 -1 -1 -0 -0 -1 -1 0 1 1 2 2
-1 -1 -1 -1 -1 -1 0 -1 -1 -1 -1 -1 -1 -1 -1 -1 -2 -2 -2 -0 -0 1 1 1 1 2 2
-1 -2 -1 -1 -2 -2 -1 -2 -2 -2 -1 -1 -1 -0 -1 0 0 0 0 0 1 1 1 1 1 1 2
-2 -2 -2 -2 -2 -3 -2 -2 -1 0 -0 -1 -0 -0 -0 -0 -0 -0 -0 -0 -0 0 1 1 1 1 1
-3 -3 -2 -3 -2 -2 -1 -1 -1 -2 -2 -2 -2 -1 -1 -1 -1 -1 -1 -1 -0 -0 0 0 1 1 1
-2 -2 -2 -3 -2 -2 -3 -3 -3 -3 -3 -3 -3 -3 -3 -3 -3 -2 -2 -2 -1 -1 -1 -1 -0 -0 -0
-2 -3 -3 -3 -3 -3 -4 -4 -3 -3 -3 -3 -3 -4 -4 -4 -3 -3 -3 -3 -3 -2 -2 -2 -2 -2 -1
-3 -3 -3 -4 -4 -4 -4 -4 -4 -4 -4 -4 -4 -4 -4 -4 -4 -4 -4 -4 -4 -4 -4 -3 -3 -3 -3
-3 -4 -4 -4 -4 -4 -5 -5 -5 -5 -5 -5 -5 -5 -5 -5 -5 -5 -5 -5 -5 -5 -5 -5 -5 -5 -5
-4 -4 -4 -5 -5 -5 -5 -6 -6 -6 -6 -6 -6 -6 -5 -6 -6 -6 -6 -6 -6 -6 -6 -6 -7 -7 -7
-5 -5 -5 -6 -6 -6 -6 -6 -6 -7 -7 -6 -6 -7 -7 -7 -7 -8 -8 -8 -8 -8 -8 -8 -8 -8 -8
-6 -6 -6 -7 -7 -7 -7 -7 -7 -7 -7 -7 -8 -8 -8 -8 -8 -8 -9 -9 -9 -9 -9 -9 -9 -10 -9
-6 -7 -7 -7 -7 -7 -7 -8 -8 -8 -8 -8 -9 -9 -9 -9 -9 -9 -9 -9 -10 -10 -10 -10 -10 -10 -10
-7 -7 -7 -8 -8 -8 -8 -8 -9 -9 -9 -9 -9 -9 -9 -10 -10 -10 -10 -10 -10 -11 -10 -11 -11 -10 -9
-8 -8 -8 -8 -8 -8 -8 -8 -9 -9 -10 -10 -10 -10 -11 -12 -11 -11 -11 -11 -11 -11 -10 -10 -11 -9 -9
-8 -8 -8 -8 -8 -8 -8 -9 -10 -10 -10 -10 -10 -11 -12 -12 -13 -11 -12 -12 -12 -11 -11 -10 -10 -10 -9
-8 -8 -8 -8 -9 -9 -9 -10 -10 -11 -11 -11 -11 -12 -11 -12 -12 -12 -12 -12 -12 -11 -11 -10 -9 -10 -10

GFSFLT2_700_temp_147.txt.gz
Temp
-1 -1 -0 -1 -1 -1 -1 -0 -0 0 0 -0 -0 -1 -1 -1 -0 -1 -1 -1 -1 -1 -1 -1 -1 -1 -1
-2 -2 -2 -1 -2 -1 -0 -0 -0 -1 -1 -2 -2 -2 -1 -0 -1 -0 -1 -1 -1 -1 -1 -2 -0 1 1
-2 -2 -2 -2 -1 -1 -0 -1 -2 -2 -2 -2 -2 -1 -1 -1 -1 -1 -1 -0 -0 -0 0 1 1 1 0
-2 -2 -2 -2 -2 -3 -2 -2 -2 -1 -1 -1 -1 -1 -1 -1 -1 -1 -1 -1 -1 -0 -1 -1 -1 -1 -0
-3 -3 -3 -3 -3 -3 -3 -2 -2 -2 -2 -2 -2 -1 -1 -2 -2 -2 -2 -2 -1 -1 -2 -2 -1 -1 -1
-2 -3 -3 -2 -2 -2 -2 -3 -3 -3 -3 -3 -3 -3 -3 -3 -3 -3 -3 -3 -3 -3 -3 -2 -2 -2 -2
-2 -3 -3 -3 -3 -3 -3 -3 -3 -3 -3 -3 -4 -4 -4 -4 -4 -4 -4 -4 -4 -4 -3 -3 -3 -3 -3
-3 -3 -3 -4 -4 -4 -4 -4 -5 -5 -5 -5 -5 -5 -5 -5 -5 -5 -5 -5 -4 -4 -4 -4 -4 -4 -4
-3 -3 -4 -4 -5 -5 -5 -5 -5 -5 -5 -5 -5 -5 -5 -5 -5 -5 -5 -5 -5 -5 -5 -5 -5 -5 -5
-4 -4 -4 -5 -5 -5 -5 -6 -6 -6 -6 -6 -5 -5 -4 -5 -6 -6 -6 -6 -6 -6 -7 -7 -7 -6 -6
-5 -5 -5 -5 -5 -6 -6 -6 -6 -6 -6 -6 -6 -6 -6 -6 -6 -7 -7 -7 -7 -8 -8 -8 -8 -8 -8
-5 -6 -6 -6 -6 -7 -7 -7 -7 -7 -7 -7 -7 -7 -7 -7 -7 -7 -8 -8 -9 -9 -9 -9 -9 -10 -9
-6 -6 -7 -7 -7 -7 -7 -7 -8 -8 -7 -7 -7 -8 -8 -8 -7 -8 -8 -9 -10 -10 -10 -10 -10 -10 -9
-7 -7 -7 -8 -7 -7 -7 -8 -8 -8 -8 -8 -8 -8 -8 -9 -9 -9 -10 -10 -10 -10 -10 -10 -11 -11 -10
-7 -7 -8 -8 -8 -8 -8 -8 -8 -8 -8 -8 -9 -9 -9 -9 -10 -10 -10 -10 -11 -11 -10 -10 -11 -10 -10
-8 -8 -8 -8 -8 -8 -8 -8 -8 -8 -9 -9 -9 -9 -10 -11 -11 -11 -10 -11 -11 -11 -11 -10 -10 -10 -10
-8 -8 -8 -8 -8 -8 -8 -8 -9 -9 -9 -9 -10 -10 -10 -10 -11 -13 -10 -11 -11 -11 -11 -11 -10 -10 -10

GFSFLT2_700_temp_153.txt.gz
Temp
-1 -2 -2 -2 -2 -2 -2 -2 -1 -1 -1 -2 -2 -1 -1 -1 -1 -1 -1 -2 -2 -1 -1 -1 -1 -2 -2
-1 -1 -2 -2 -2 -2 -3 -2 -3 -2 -2 -2 -2 -1 -1 -1 -2 -2 -2 -2 -2 -1 -1 -1 -0 -1 -1
0 0 -1 -1 -1 -2 -3 -3 -2 -2 -2 -2 -2 -2 -2 -2 -2 -2 -2 -1 -1 -1 -1 -1 -1 -1 -1
0 0 0 -2 -2 -3 -3 -2 -3 -3 -3 -3 -2 -2 -2 -2 -2 -2 -2 -2 -2 -2 -1 -1 -2 -2 -2
-0 -0 -0 -1 -1 -2 -3 -3 -2 -3 -2 -3 -3 -3 -3 -2 -2 -3 -3 -3 -3 -3 -2 -3 -3 -2 -2
-0 -1 -1 -1 -2 -2 -2 -2 -2 -3 -3 -3 -4 -4 -4 -3 -3 -3 -3 -3 -3 -3 -3 -3 -3 -3 -3
-1 -2 -2 -2 -2 -2 -3 -3 -3 -3 -3 -4 -4 -4 -4 -4 -4 -4 -4 -4 -4 -4 -3 -3 -3 -3 -3
-2 -2 -3 -3 -3 -3 -3 -3 -4 -4 -4 -4 -5 -5 -5 -5 -5 -5 -5 -5 -4 -4 -4 -4 -4 -4 -4
-2 -3 -3 -3 -4 -4 -4 -4 -5 -5 -5 -5 -5 -5 -6 -6 -6 -6 -6 -5 -5 -5 -5 -4 -4 -4 -4
-3 -3 -4 -4 -4 -4 -5 -5 -5 -5 -6 -6 -6 -6 -6 -6 -6 -6 -6 -5 -5 -5 -5 -5 -5 -4 -5
-4 -4 -5 -5 -5 -5 -6 -6 -6 -6 -6 -7 -6 -6 -6 -6 -6 -6 -6 -6 -5 -5 -5 -5 -6 -6 -6
-5 -5 -5 -5 -6 -6 -6 -7 -7 -7 -7 -7 -7 -6 -6 -6 -6 -6 -6 -6 -5 -5 -5 -7 -7 -8 -8
-5 -6 -6 -6 -6 -6 -7 -7 -7 -7 -7 -7 -7 -7 -7 -6 -6 -6 -5 -6 -6 -6 -7 -8 -8 -9 -9
-6 -6 -6 -6 -6 -7 -7 -7 -7 -8 -8 -8 -8 -7 -7 -7 -7 -7 -6 -6 -6 -7 -8 -8 -9 -10 -9
-6 -6 -6 -7 -7 -7 -7 -8 -8 -8 -8 -8 -8 -8 -8 -8 -8 -8 -7 -7 -7 -8 -8 -8 -10 -10 -9
-7 -7 -7 -7 -8 -8 -8 -8 -8 -8 -8 -9 -9 -8 -8 -9 -9 -8 -7 -7 -8 -9 -9 -9 -9 -11 -10
-7 -8 -8 -7 -8 -8 -8 -8 -8 -9 -9 -9 -9 -9 -8 -8 -9 -9 -7 -8 -9 -9 -9 -10 -9 -10 -9

GFSFLT2_700_temp_156.txt.gz
Temp
-1 -1 -1 -0 -0 -0 -1 -1 -2 -2 -2 -1 -1 -1 -2 -1 -1 -1 -0 -0 -0 -0 -0 -1 -1 -1 -1
0 0 0 -0 -1 -1 -0 -1 -1 -1 -1 -1 -1 -1 -1 -1 -1 -1 -1 -1 -2 -2 -2 -2 -2 -1 -1
0 0 0 1 0 -0 -1 -1 -1 -1 -2 -2 -2 -2 -2 -2 -2 -2 -2 -1 -2 -2 -2 -1 -1 -1 -1
0 0 0 0 0 -0 -1 -1 -2 -2 -1 -1 -1 -1 -2 -2 -2 -2 -2 -2 -2 -2 -2 -2 -2 -2 -2
0 0 0 -0 -0 -1 -1 -1 -1 -1 -2 -2 -2 -1 -2 -2 -2 -2 -2 -2 -2 -2 -3 -3 -2 -2 -3
-1 -1 -1 -1 -1 -1 -1 -2 -2 -2 -2 -3 -2 -2 -2 -3 -3 -3 -3 -3 -3 -3 -3 -3 -3 -3 -3
-1 -1 -1 -2 -2 -2 -2 -2 -2 -3 -3 -3 -4 -3 -4 -4 -4 -4 -4 -3 -4 -4 -4 -4 -3 -3 -3
-2 -2 -2 -2 -2 -3 -3 -3 -3 -3 -3 -4 -4 -5 -5 -4 -5 -5 -5 -5 -4 -4 -4 -4 -4 -4 -4
-2 -3 -3 -3 -3 -3 -3 -4 -4 -4 -4 -4 -5 -5 -5 -5 -6 -6 -6 -5 -5 -5 -5 -4 -4 -4 -4
-3 -3 -3 -4 -4 -4 -4 -4 -5 -5 -5 -5 -6 -6 -6 -6 -6 -6 -6 -6 -5 -5 -5 -4 -4 -4 -4
-4 -4 -4 -4 -4 -5 -5 -5 -5 -5 -6 -6 -6 -7 -7 -7 -7 -7 -6 -6 -6 -5 -5 -5 -5 -4 -4
-5 -5 -5 -5 -5 -5 -5 -6 -6 -6 -6 -7 -7 -7 -7 -7 -7 -7 -7 -6 -6 -5 -5 -6 -6 -5 -5
-5 -5 -5 -6 -6 -6 -6 -6 -7 -7 -7 -7 -7 -7 -7 -7 -6 -7 -6 -6 -6 -6 -6 -6 -6 -7 -7
-6 -6 -6 -6 -6 -6 -7 -7 -7 -7 -7 -7 -7 -8 -8 -8 -7 -7 -7 -6 -6 -6 -6 -6 -7 -8 -8
-7 -7 -7 -7 -7 -7 -7 -7 -7 -7 -7 -7 -8 -8 -8 -8 -8 -8 -7 -7 -7 -6 -6 -7 -8 -9 -8
-7 -7 -8 -8 -8 -8 -8 -8 -8 -8 -8 -8 -8 -8 -8 -8 -9 -9 -8 -8 -7 -7 -7 -7 -8 -9 -9
-7 -7 -7 -8 -8 -8 -8 -8 -8 -8 -8 -8 -8 -8 -9 -9 -9 -10 -9 -9 -8 -8 -8 -8 -9 -10 -9

GFSFLT2_700_temp_159.txt.gz
Temp
1 1 1 1 1 0 0 -0 -1 -1 -1 -1 -1 -0 -0 0 0 0 0 0 0 0 0 0 0 -0 -0
1 1 1 1 1 1 1 -0 -0 -0 -0 -1 -1 -0 -1 -0 -0 0 1 0 0 -0 -1 -1 -1 -1 -2
1 1 1 0 1 1 1 1 0 -0 -1 -1 -1 -1 -1 -1 -1 -1 -1 -1 -1 -1 -1 -1 -1 -1 -1
1 0 0 0 0 -0 -0 0 -0 -0 -1 -1 -1 -1 -1 -1 -1 -1 -1 -1 -1 -1 -1 -2 -2 -2 -2
0 0 -0 -0 -0 -0 -1 -1 -1 -1 -1 -1 -1 -1 -1 -2 -2 -2 -2 -2 -2 -2 -2 -2 -2 -2 -2
-1 -1 -1 -1 -1 -1 -1 -1 -1 -1 -1 -1 -2 -2 -2 -2 -2 -2 -2 -2 -2 -3 -3 -3 -3 -3 -3
-1 -2 -2 -2 -2 -2 -2 -2 -2 -2 -2 -2 -2 -2 -3 -3 -3 -3 -3 -3 -3 -4 -4 -4 -4 -4 -3
-2 -2 -2 -3 -3 -2 -2 -3 -3 -3 -3 -3 -4 -4 -4 -4 -4 -4 -4 -4 -4 -5 -5 -4 -4 -4 -3
-3 -3 -3 -3 -3 -3 -3 -3 -3 -4 -4 -4 -4 -5 -5 -5 -5 -5 -5 -5 -5 -5 -5 -5 -4 -4 -4
-4 -4 -4 -4 -4 -4 -4 -4 -4 -4 -4 -5 -5 -5 -5 -5 -6 -6 -6 -6 -6 -5 -5 -5 -5 -4 -4
-4 -4 -5 -5 -5 -5 -5 -5 -5 -5 -5 -5 -6 -6 -6 -6 -7 -7 -7 -6 -6 -6 -5 -6 -5 -5 -4
-5 -5 -5 -6 -6 -5 -6 -6 -6 -6 -6 -6 -6 -7 -7 -7 -7 -7 -7 -7 -7 -7 -6 -6 -6 -5 -5
-6 -6 -6 -6 -6 -6 -6 -6 -6 -6 -7 -7 -7 -7 -7 -7 -7 -8 -7 -8 -8 -7 -7 -6 -6 -6 -6
-6 -6 -6 -6 -6 -6 -6 -7 -7 -7 -7 -7 -7 -7 -7 -7 -8 -8 -7 -7 -7 -7 -7 -7 -7 -7 -6
-7 -7 -7 -7 -7 -7 -7 -8 -8 -8 -8 -8 -8 -8 -8 -8 -8 -8 -8 -8 -7 -7 -7 -6 -7 -7 -7
-6 -7 -7 -7 -8 -7 -8 -8 -9 -9 -9 -9 -8 -8 -8 -8 -8 -9 -8 -8 -8 -8 -7 -6 -7 -8 -8
-7 -7 -7 -7 -6 -7 -7 -8 -9 -9 -9 -9 -8 -8 -8 -8 -8 -9 -8 -9 -8 -8 -8 -7 -7 -8 -9

GFSFLT2_700_temp_162.txt.gz
Temp
1 1 1 1 2 2 2 2 2 2 1 1 1 -0 -0 -0 -0 -0 0 0 1 1 1 1 1 1 1
2 1 1 1 1 1 1 2 1 1 1 1 1 1 0 0 -0 -0 -0 -0 -1 -1 -0 -1 -1 -1 -1
1 1 1 1 1 1 1 1 1 0 0 -0 -0 -0 -0 -1 -0 -0 -1 -1 -1 -1 -1 -1 -1 -1 -1
1 1 1 0 0 0 0 0 0 0 -0 -0 -1 -1 -1 -1 -1 -1 -1 -1 -1 -1 -1 -1 -1 -1 -2
-1 -0 -0 -0 -0 -0 -0 -1 -1 -1 -1 -1 -1 -1 -1 -2 -2 -2 -2 -2 -2 -2 -2 -2 -2 -2 -2
-1 -1 -1 -1 -1 -1 -1 -1 -1 -2 -2 -2 -2 -2 -2 -2 -2 -2 -2 -3 -3 -2 -3 -3 -3 -3 -3
-2 -2 -1 -2 -2 -2 -2 -2 -2 -3 -3 -3 -2 -3 -3 -3 -3 -3 -3 -3 -3 -3 -3 -3 -3 -4 -4
-2 -2 -2 -3 -3 -3 -3 -3 -3 -3 -3 -3 -3 -4 -4 -4 -4 -4 -4 -4 -4 -4 -4 -4 -5 -5 -4
-3 -3 -3 -3 -3 -4 -4 -4 -4 -4 -4 -4 -4 -5 -5 -5 -5 -5 -5 -5 -5 -5 -5 -5 -5 -5 -5
-4 -4 -4 -4 -4 -4 -4 -4 -4 -4 -5 -5 -5 -5 -5 -6 -5 -5 -5 -5 -6 -6 -6 -6 -6 -5 -5
-5 -5 -5 -5 -5 -5 -5 -5 -5 -5 -5 -5 -5 -6 -6 -6 -6 -6 -6 -6 -6 -7 -6 -6 -6 -6 -5
-6 -6 -6 -6 -6 -6 -6 -6 -6 -6 -6 -6 -6 -6 -6 -7 -7 -7 -6 -7 -7 -7 -7 -7 -7 -7 -6
-6 -6 -7 -8 -7 -6 -6 -6 -6 -6 -6 -6 -7 -7 -7 -7 -7 -7 -7 -7 -8 -8 -8 -8 -7 -7 -7
-7 -6 -6 -6 -8 -8 -7 -7 -7 -6 -7 -7 -7 -7 -7 -7 -7 -8 -7 -7 -7 -8 -8 -8 -8 -7 -7
-8 -7 -7 -7 -7 -8 -9 -9 -9 -8 -8 -8 -8 -8 -8 -8 -8 -8 -8 -8 -7 -8 -8 -7 -8 -8 -7
-8 -8 -8 -7 -7 -7 -7 -7 -8 -9 -8 -8 -7 -8 -8 -8 -8 -8 -8 -8 -8 -8 -8 -7 -7 -8 -7
-8 -8 -8 -8 -8 -7 -7 -7 -7 -7 -7 -8 -8 -9 -9 -9 -9 -9 -8 -8 -8 -8 -8 -8 -8 -8 -8

GFSFLT2_700_temp_165.txt.gz
Temp
2 2 2 2 2 2 2 3 3 3 2 1 1 0 0 1 1 0 0 0 0 0 0 0 -0 -0 -0
1 1 1 1 2 2 2 2 2 3 3 2 2 1 1 0 -0 -0 -0 -1 -0 -0 -0 -0 0 0 0
1 1 1 1 1 1 1 1 1 1 2 2 1 0 0 0 0 -0 -1 -1 -1 -1 -1 -1 -1 -1 -1
0 0 0 0 1 0 0 0 0 0 0 1 1 1 0 -0 -0 -0 -0 -0 -1 -1 -1 -1 -1 -1 -2
-1 -1 -1 -1 -0 -0 -0 -0 -0 -0 -0 -1 -1 -1 -1 -1 -1 -1 -1 -1 -1 -2 -2 -1 -2 -2 -2
-2 -2 -2 -2 -2 -2 -2 -2 -1 -1 -1 -1 -1 -2 -2 -2 -2 -2 -2 -2 -2 -2 -2 -2 -2 -2 -2
-3 -3 -3 -3 -2 -2 -2 -2 -2 -2 -2 -2 -2 -2 -2 -3 -3 -3 -3 -3 -4 -3 -3 -3 -3 -3 -3
-4 -4 -3 -3 -3 -3 -3 -3 -3 -3 -3 -3 -3 -3 -3 -3 -4 -4 -4 -4 -4 -4 -4 -4 -4 -4 -4
-4 -4 -4 -4 -4 -4 -4 -4 -4 -4 -4 -4 -4 -4 -4 -4 -4 -5 -5 -5 -5 -4 -5 -5 -5 -5 -5
-5 -6 -5 -5 -5 -5 -5 -5 -5 -5 -5 -5 -5 -5 -5 -5 -5 -5 -6 -5 -5 -5 -6 -6 -6 -6 -6
-6 -6 -6 -6 -6 -7 -6 -6 -6 -6 -6 -6 -6 -6 -6 -6 -6 -6 -6 -6 -6 -6 -6 -6 -6 -6 -6
-6 -7 -7 -7 -7 -6 -6 -6 -7 -6 -6 -6 -6 -6 -7 -7 -7 -7 -7 -7 -7 -6 -6 -7 -7 -7 -6
-7 -8 -8 -8 -7 -7 -7 -7 -8 -8 -7 -7 -7 -7 -7 -7 -7 -8 -7 -7 -7 -7 -7 -7 -7 -7 -7
-8 -8 -8 -8 -8 -7 -7 -8 -8 -9 -10 -9 -9 -9 -8 -8 -8 -8 -8 -8 -8 -7 -7 -7 -8 -8 -7
-8 -8 -8 -8 -8 -8 -8 -8 -7 -8 -9 -10 -9 -10 -10 -9 -8 -8 -8 -8 -8 -8 -8 -7 -8 -8 -8
-7 -8 -8 -9 -9 -8 -8 -8 -8 -8 -8 -8 -8 -8 -8 -9 -9 -9 -9 -8 -8 -8 -8 -7 -8 -9 -8
-8 -8 -9 -9 -8 -8 -8 -8 -8 -9 -9 -9 -8 -9 -9 -9 -9 -9 -9 -9 -8 -9 -8 -8 -7 -8 -8

GFSFLT2_700_temp_168.txt.gz
Temp
1 1 1 1 2 2 2 2 3 3 3 3 2 2 2 2 1 1 0 -0 -0 -0 -0 -0 0 0 0
1 1 1 1 1 2 2 2 2 2 2 2 2 2 2 1 1 1 1 1 0 0 -0 -0 -0 -0 -0
0 0 0 -0 0 0 1 1 1 1 1 1 1 1 2 1 1 1 1 0 0 0 -0 -0 -0 -0 -0
-0 -0 -1 -1 -0 -0 -0 -0 -0 -0 0 0 0 0 0 0 0 0 -0 -0 -0 -1 -1 -1 -1 -1 -1
-1 -1 -1 -1 -1 -1 -1 -1 -1 -1 -1 -1 -1 -1 -1 -1 -1 -1 -1 -1 -1 -1 -1 -1 -1 -1 -1
-2 -2 -2 -2 -2 -2 -2 -2 -2 -2 -2 -2 -2 -2 -2 -1 -1 -2 -2 -2 -2 -2 -2 -2 -2 -2 -2
-2 -3 -3 -3 -3 -3 -3 -3 -3 -3 -3 -3 -3 -3 -3 -3 -3 -3 -3 -3 -3 -3 -3 -3 -3 -3 -3
-3 -3 -4 -4 -4 -4 -4 -4 -4 -4 -4 -4 -4 -4 -4 -4 -4 -4 -4 -4 -4 -4 -4 -4 -4 -4 -4
-4 -4 -4 -4 -5 -5 -5 -5 -5 -5 -5 -4 -4 -5 -5 -4 -4 -4 -5 -5 -5 -5 -5 -5 -5 -5 -4
-4 -4 -4 -4 -5 -6 -6 -6 -6 -6 -5 -5 -5 -5 -5 -5 -5 -5 -6 -6 -6 -6 -6 -6 -5 -5 -5
-4 -4 -5 -5 -6 -7 -7 -7 -6 -6 -6 -6 -6 -6 -6 -6 -6 -6 -6 -6 -6 -6 -6 -6 -6 -6 -6
-5 -5 -6 -6 -7 -8 -7 -7 -7 -7 -8 -8 -7 -7 -7 -7 -7 -7 -7 -7 -7 -7 -7 -6 -7 -7 -6
-6 -6 -7 -7 -7 -8 -8 -8 -8 -7 -7 -7 -9 -9 -9 -8 -8 -8 -8 -7 -7 -7 -7 -7 -7 -7 -6
-7 -7 -7 -8 -8 -8 -8 -8 -8 -8 -8 -8 -8 -10 -10 -10 -10 -10 -10 -9 -9 -8 -8 -8 -8 -8 -7
-7 -7 -7 -7 -8 -8 -9 -8 -8 -8 -8 -8 -9 -9 -10 -10 -10 -10 -10 -10 -10 -9 -8 -8 -8 -8 -8
-7 -7 -8 -8 -8 -8 -9 -9 -9 -8 -8 -8 -9 -9 -9 -9 -9 -9 -9 -10 -10 -9 -9 -8 -8 -10 -8
-8 -8 -8 -8 -9 -9 -9 -9 -9 -9 -9 -9 -10 -10 -10 -10 -10 -10 -11 -10 -10 -10 -9 -9 -8 -9 -8

GFSFLT2_700_temp_171.txt.gz
Temp
1 1 1 1 2 2 2 2 2 2 2 3 2 2 2 2 2 1 1 -0 -0 -0 0 -0 -0 0 0
0 0 1 0 1 1 1 1 1 1 1 1 2 2 2 1 1 1 1 1 0 0 -0 -0 0 1 0
0 -0 -0 -1 -0 0 0 0 1 1 1 1 1 1 1 1 1 0 0 0 0 0 -0 -0 -0 -1 -0
-0 -1 -1 -1 -1 -1 -1 -0 -0 -0 -0 -0 -0 -0 -0 -0 -0 -0 -0 -1 -1 -1 -0 -0 -1 -1 -1
-1 -1 -1 -2 -2 -1 -1 -2 -1 -1 -1 -1 -1 -1 -1 -1 -1 -1 -1 -1 -1 -1 -2 -2 -2 -2 -1
-2 -1 -2 -2 -2 -2 -2 -2 -2 -2 -2 -2 -2 -2 -2 -2 -2 -2 -2 -2 -2 -2 -2 -2 -2 -2 -2
-1 -2 -2 -2 -2 -2 -3 -3 -3 -3 -3 -3 -3 -3 -3 -3 -3 -3 -3 -3 -3 -3 -3 -3 -3 -3 -3
-3 -3 -3 -3 -3 -3 -3 -3 -4 -4 -4 -4 -4 -4 -4 -4 -4 -4 -4 -4 -4 -4 -4 -4 -4 -4 -4
-3 -3 -3 -3 -3 -4 -4 -5 -5 -5 -5 -5 -5 -5 -5 -5 -5 -5 -5 -5 -5 -5 -5 -5 -5 -5 -5
-4 -4 -4 -4 -4 -5 -5 -5 -6 -6 -6 -6 -6 -6 -6 -5 -5 -5 -6 -6 -5 -5 -6 -6 -6 -6 -5
-4 -4 -4 -4 -5 -5 -6 -6 -6 -6 -7 -7 -7 -7 -7 -7 -6 -6 -6 -6 -6 -6 -6 -6 -6 -6 -6
-5 -5 -5 -5 -5 -5 -6 -6 -7 -7 -8 -8 -8 -8 -7 -8 -8 -7 -7 -7 -7 -7 -7 -7 -7 -7 -7
-6 -6 -6 -6 -6 -7 -7 -7 -7 -8 -8 -8 -8 -8 -8 -8 -8 -9 -9 -8 -8 -8 -8 -8 -8 -8 -8
-6 -6 -6 -7 -7 -7 -7 -8 -8 -8 -9 -9 -8 -8 -8 -8 -8 -9 -10 -10 -9 -9 -9 -9 -9 -8 -8
-6 -6 -6 -7 -8 -8 -8 -8 -8 -8 -8 -9 -9 -9 -8 -8 -9 -10 -10 -10 -10 -9 -9 -9 -9 -9 -9
-7 -7 -7 -8 -8 -8 -8 -8 -8 -9 -9 -9 -9 -9 -9 -9 -9 -10 -10 -10 -11 -10 -10 -10 -9 -10 -9
-7 -7 -8 -9 -9 -9 -9 -9 -9 -9 -9 -9 -9 -9 -9 -9 -10 -10 -10 -10 -10 -10 -10 -9 -9 -9 -9

GFSFLT2_700_temp_174.txt.gz
Temp
0 0 1 0 1 1 1 1 1 1 2 2 2 2 2 2 2 2 1 1 0 1 0 -0 -0 -0 -0
-0 -0 -0 -0 0 0 1 1 1 1 1 1 1 1 1 1 1 1 1 1 1 0 0 -0 -0 -0 -0
-0 -1 -1 -1 -0 -1 -0 -0 -0 -0 0 0 0 0 0 0 0 0 0 0 0 0 -0 -0 -0 -1 -1
-1 -1 -1 -1 -1 -1 -1 -1 -1 -1 -1 -1 -1 -0 -0 -0 -0 -0 -0 -0 -1 -1 -1 -1 -1 -1 -1
-1 -1 -2 -2 -2 -2 -1 -2 -1 -1 -1 -2 -1 -1 -1 -1 -1 -1 -1 -1 -1 -1 -1 -1 -1 -1 -1
-2 -2 -2 -2 -2 -2 -2 -2 -2 -2 -2 -2 -2 -3 -2 -2 -2 -2 -2 -2 -2 -2 -2 -2 -2 -2 -2
-2 -3 -3 -3 -2 -3 -3 -3 -3 -3 -3 -3 -3 -3 -3 -3 -3 -3 -3 -3 -3 -3 -3 -3 -3 -3 -3
-3 -3 -3 -3 -3 -3 -3 -3 -3 -4 -4 -4 -4 -4 -4 -4 -4 -4 -4 -4 -4 -4 -4 -4 -4 -4 -4
-4 -4 -4 -4 -4 -4 -4 -4 -4 -4 -5 -4 -4 -5 -5 -5 -5 -5 -5 -5 -5 -5 -5 -5 -5 -5 -5
-4 -4 -4 -4 -4 -4 -5 -4 -5 -4 -5 -5 -5 -6 -6 -6 -6 -6 -6 -6 -6 -6 -6 -6 -6 -6 -6
-4 -4 -5 -5 -5 -5 -5 -5 -5 -5 -6 -5 -5 -6 -7 -7 -7 -7 -7 -7 -7 -6 -6 -6 -6 -6 -7
-5 -5 -6 -6 -6 -6 -6 -6 -6 -7 -7 -7 -7 -7 -8 -8 -8 -8 -8 -8 -8 -7 -7 -7 -7 -7 -7
-6 -6 -6 -6 -6 -6 -6 -7 -7 -7 -7 -8 -8 -8 -8 -8 -8 -8 -8 -9 -9 -9 -9 -8 -8 -8 -8
-7 -6 -6 -6 -6 -6 -7 -7 -7 -7 -8 -8 -8 -8 -8 -8 -8 -8 -8 -8 -9 -9 -9 -9 -9 -9 -9
-7 -7 -6 -6 -7 -7 -7 -7 -7 -8 -8 -8 -8 -8 -8 -8 -9 -9 -9 -8 -9 -9 -9 -9 -10 -10 -10
-7 -7 -6 -7 -7 -7 -8 -8 -8 -8 -8 -9 -9 -9 -9 -9 -9 -9 -9 -9 -9 -9 -9 -9 -9 -10 -9
-8 -8 -7 -7 -7 -8 -8 -8 -9 -9 -9 -9 -10 -10 -10 -10 -10 -9 -9 -9 -9 -9 -9 -9 -9 -10 -9